Wind_Speed
3 4 6 8 9 10 12 14 15 15 16 18 19 20 21 23 24 25 26 27 28 28 28 29 29 31 31 31 32 33 33 34 35 35 35 35 36 37 36 35 37 38 39 40
3 4 5 7 8 9 11 13 14 16 16 17 18 19 20 21 22 24 25 26 28 28 27 28 29 30 31 32 32 33 34 34 35 35 36 37 37 38 39 40 39 39 40 40
4 5 5 6 8 10 12 13 14 16 17 18 19 20 20 21 22 23 24 26 27 28 28 28 29 30 31 32 33 34 35 35 36 36 37 38 39 40 40 41 41 41 41 41
6 5 6 7 8 10 12 14 15 17 18 19 20 21 21 22 23 24 25 25 26 27 28 28 29 30 31 32 33 34 35 36 37 37 37 37 38 38 39 39 40 40 40 40
7 7 7 8 9 10 12 14 15 16 17 19 20 22 21 23 23 24 25 26 26 27 28 28 29 30 31 32 33 34 35 36 37 37 37 37 37 37 37 38 38 39 39 39
9 9 9 9 10 11 12 13 15 17 17 18 19 21 21 22 23 24 25 27 28 28 28 28 29 30 31 32 32 33 34 35 36 36 36 37 37 38 38 38 38 38 38 38
11 11 12 12 12 13 13 14 15 17 17 18 19 21 21 22 23 23 24 26 27 28 29 29 30 30 31 32 33 34 34 34 34 35 36 36 37 38 38 38 37 37 38 38
13 14 14 14 14 14 15 16 17 18 18 18 19 20 20 21 22 23 24 25 27 28 29 30 30 31 32 32 33 33 34 34 34 34 35 36 36 37 37 37 37 37 37 36
15 15 16 16 16 16 16 16 17 17 17 17 17 18 18 19 20 22 23 25 26 28 29 29 29 30 31 32 32 33 33 33 34 34 34 35 35 35 35 36 36 36 35 34
17 17 17 17 16 16 16 16 16 16 17 17 17 18 18 18 19 21 22 23 24 26 27 28 29 30 31 31 32 32 32 33 34 34 34 34 34 34 34 34 34 34 33 33
18 18 18 18 17 17 17 17 17 17 18 19 19 18 19 19 20 21 22 23 25 26 27 27 28 29 29 30 31 31 32 32 33 33 33 33 34 34 34 34 34 33 33 33
20 19 19 19 19 18 18 19 19 19 20 21 21 19 20 21 22 22 23 24 25 26 27 27 28 29 29 30 31 31 31 31 32 32 32 32 33 34 34 34 34 33 33 33
22 21 21 20 20 20 19 20 21 22 22 22 23 22 21 22 23 24 25 24 25 26 26 27 28 29 30 30 30 31 31 31 31 31 31 32 32 33 33 33 33 33 33 33
24 23 23 23 23 23 23 23 23 24 24 24 23 23 23 23 24 24 25 25 26 26 27 27 28 29 29 30 31 31 31 32 32 31 31 32 32 32 32 33 33 33 33 34
26 26 26 25 25 25 25 25 25 25 25 25 23 24 24 25 25 25 25 26 27 27 27 27 28 29 30 30 31 32 32 31 31 31 31 31 31 32 33 33 34 34 34 34
28 29 29 28 28 29 28 26 26 26 26 26 26 25 25 26 26 26 27 27 28 28 28 28 28 29 30 30 31 31 32 31 31 31 31 31 32 33 33 34 34 34 35 35
32 32 32 31 31 32 30 29 29 28 28 28 28 27 28 28 28 28 29 29 29 29 29 29 30 30 30 30 31 31 31 31 32 32 32 32 33 33 33 34 34 34 35 35
35 35 36 35 34 34 32 31 31 31 30 30 30 30 30 30 30 30 30 30 31 31 31 31 31 31 32 32 32 31 31 31 32 32 32 33 33 32 33 33 34 34 34 34
38 38 38 38 37 37 34 33 33 33 32 31 32 31 31 30 30 30 31 32 32 33 33 33 33 32 32 33 33 32 32 32 32 32 33 33 33 33 33 33 33 33 33 33
40 40 40 40 40 40 37 36 35 36 36 34 33 32 32 32 32 32 33 33 34 35 35 35 35 34 34 34 34 33 33 33 33 33 33 34 34 34 33 33 33 33 33 33
43 43 42 42 43 42 40 39 38 38 38 37 36 36 35 35 35 35 35 35 35 36 36 37 36 36 36 36 35 35 35 34 34 34 35 35 35 34 34 34 34 33 33 33
45 45 44 44 44 43 41 41 40 40 40 39 38 38 39 39 38 37 36 36 36 36 36 37 37 37 38 38 37 36 36 36 36 36 36 36 36 36 35 35 34 33 32 32
47 46 46 46 45 44 43 43 42 42 41 41 41 41 41 40 40 39 39 38 38 38 38 38 38 38 38 39 39 38 37 38 38 37 37 37 37 37 36 35 34 34 33 33
49 48 49 49 47 45 45 45 44 44 44 44 43 43 43 43 43 42 42 41 41 41 41 41 40 40 39 39 39 39 39 39 38 38 38 37 37 36 36 35 35 34 33 33
49 49 50 50 48 48 47 47 47 46 46 45 45 45 46 46 45 45 44 43 43 43 43 42 41 41 40 40 39 39 39 39 39 39 38 38 37 37 36 36 35 34 34 33
47 48 49 49 48 50 49 48 48 48 47 47 47 47 47 48 47 47 46 45 44 44 43 43 42 42 41 41 40 40 40 40 40 39 39 38 38 37 37 36 35 35 34 34
Wind_Direction
297 260 246 243 242 245 245 245 245 246 248 250 251 250 247 245 244 245 243 241 242 244 247 248 248 247 247 249 250 253 255 257 259 262 264 266 267 268 267 268 269 270 270 271
313 295 267 252 251 251 251 251 251 252 252 254 254 253 250 248 245 244 242 244 245 246 248 249 250 250 251 252 253 255 257 259 261 263 265 267 268 270 271 271 271 272 273 272
327 310 293 271 260 257 259 261 260 260 259 258 257 256 255 253 250 247 245 246 249 249 250 252 253 254 255 255 256 257 258 260 262 266 268 269 270 271 272 273 272 272 272 270
340 320 306 295 280 271 267 268 267 264 263 262 261 260 257 258 254 251 248 250 252 252 253 254 256 257 258 258 259 260 261 262 264 267 269 270 272 273 274 274 272 272 273 273
340 332 319 306 296 285 277 274 272 272 270 267 267 266 261 260 258 255 253 253 254 255 257 258 258 259 260 261 262 263 264 265 266 268 270 271 273 274 275 275 274 274 274 274
338 335 328 315 305 296 289 282 278 276 275 273 271 270 267 265 264 259 257 256 257 258 260 261 262 261 262 263 264 265 266 268 269 270 271 272 273 275 275 276 275 275 276 276
331 328 326 320 310 302 296 292 288 283 278 277 275 273 270 268 265 261 259 259 259 260 261 262 263 265 265 266 266 267 268 270 271 272 273 274 274 275 275 275 275 276 277 278
325 324 321 319 314 308 302 298 295 292 286 282 279 276 274 269 266 263 262 262 262 263 264 264 265 267 268 268 268 268 269 270 272 273 274 275 275 275 275 275 275 277 278 279
327 326 323 320 317 311 305 299 298 295 292 287 283 282 277 272 268 266 264 263 263 263 264 265 266 267 268 268 269 269 270 271 272 273 274 275 275 276 276 276 276 277 277 278
323 322 322 320 318 314 309 304 299 296 294 293 288 285 283 277 273 270 267 264 263 264 266 267 268 268 268 268 269 270 272 273 273 274 275 276 276 276 276 276 276 276 276 277
318 318 318 318 318 314 311 306 301 297 294 293 291 287 285 280 275 271 269 267 268 268 267 267 268 269 270 270 271 272 273 274 275 276 276 276 276 276 276 275 274 274 275 275
315 315 315 315 313 311 308 305 301 297 295 293 292 290 284 280 276 273 272 271 272 269 268 268 269 270 271 271 273 274 274 275 276 277 277 277 277 276 276 275 275 274 274 274
313 314 312 313 313 311 307 303 300 297 294 292 291 291 286 279 277 276 275 275 275 274 272 272 272 272 272 273 273 273 274 276 277 277 277 278 278 277 276 275 275 275 274 274
308 309 310 310 310 307 305 303 300 297 295 292 291 289 286 281 279 279 279 278 278 278 277 276 275 275 274 275 275 275 275 276 276 276 277 278 277 277 276 276 275 275 275 275
303 304 304 304 304 303 301 301 299 296 294 292 290 288 286 282 281 281 280 279 279 279 279 278 278 278 276 276 275 276 276 276 276 276 277 278 278 277 277 276 276 276 276 276
299 300 299 299 300 299 299 299 296 294 294 292 289 287 284 283 283 282 281 280 279 279 279 278 278 279 279 278 276 276 276 277 277 277 277 278 279 279 279 278 277 277 277 277
296 297 296 296 296 297 298 297 294 293 291 289 288 286 284 284 284 283 281 279 279 279 280 280 279 280 280 280 278 278 277 277 277 277 277 278 280 281 280 279 278 278 278 277
293 294 295 295 295 294 297 295 292 290 289 288 286 286 286 286 286 284 282 281 280 279 280 280 281 281 280 279 278 278 278 277 277 277 278 279 280 281 281 280 280 279 278 278
291 292 293 293 293 293 294 293 291 288 287 287 286 285 285 284 284 284 282 282 282 281 281 281 282 282 281 279 278 277 277 278 278 278 279 280 281 282 282 282 280 278 278 278
289 290 291 292 292 293 294 293 291 288 287 287 285 283 283 283 283 284 284 283 282 281 281 281 281 281 281 279 278 277 277 279 279 279 279 280 281 282 282 281 281 280 278 277
286 287 288 289 290 290 293 292 290 288 288 286 285 284 284 284 284 284 284 284 284 282 281 280 279 280 279 279 279 277 277 278 279 280 280 281 281 282 281 281 281 280 278 277
285 285 286 286 287 290 291 290 288 287 285 285 284 284 285 285 285 286 286 285 285 285 283 282 281 280 280 280 279 278 278 278 278 279 280 281 281 280 280 280 279 279 278 276
283 283 283 283 285 287 288 287 285 284 284 283 283 283 284 284 284 284 284 285 285 285 284 283 282 282 281 280 280 279 278 278 279 279 280 281 280 279 279 278 277 276 275 275
282 282 282 282 283 283 283 283 282 282 282 282 282 282 282 283 283 283 283 284 284 284 285 284 283 283 282 280 280 279 279 279 279 279 280 280 279 278 278 277 277 275 274 273
283 282 281 281 282 281 279 279 280 280 281 281 282 282 283 283 283 284 283 283 283 284 284 284 284 283 282 280 279 278 278 279 279 279 278 278 277 277 276 276 275 274 273 272
282 282 281 281 281 279 279 278 279 279 280 280 281 281 282 283 283 283 283 284 283 283 283 283 283 283 282 280 278 277 277 278 278 278 277 276 275 275 275 274 273 272 271 271
Height
5711 5713 5713 5714 5715 5716 5717 5717 5719 5720 5721 5722 5723 5725 5727 5728 5730 5732 5734 5736 5739 5741 5743 5745 5747 5748 5750 5752 5755 5756 5758 5759 5760 5761 5761 5761 5762 5762 5762 5762 5762 5762 5761 5761
5713 5713 5713 5713 5714 5715 5715 5716 5717 5718 5719 5720 5721 5722 5723 5725 5726 5728 5730 5732 5734 5736 5738 5740 5741 5743 5745 5746 5748 5750 5751 5752 5753 5753 5754 5754 5754 5754 5754 5754 5753 5753 5753 5752
5713 5714 5713 5713 5713 5714 5714 5715 5715 5716 5716 5717 5718 5720 5720 5722 5723 5724 5726 5728 5730 5732 5734 5735 5736 5738 5739 5741 5742 5743 5744 5745 5746 5746 5746 5746 5746 5746 5745 5745 5744 5744 5743 5743
5713 5713 5712 5712 5712 5712 5713 5713 5713 5713 5714 5714 5715 5716 5718 5718 5719 5721 5722 5724 5726 5727 5728 5730 5731 5732 5733 5734 5735 5736 5737 5738 5738 5738 5738 5738 5738 5737 5737 5736 5735 5735 5734 5733
5714 5713 5712 5712 5711 5711 5711 5711 5711 5710 5710 5711 5712 5712 5715 5714 5715 5717 5718 5719 5721 5722 5723 5724 5725 5726 5727 5728 5728 5729 5730 5730 5730 5730 5730 5730 5730 5729 5728 5727 5727 5726 5725 5724
5714 5713 5712 5711 5710 5709 5709 5709 5708 5707 5707 5708 5708 5708 5710 5710 5711 5712 5713 5714 5715 5716 5717 5718 5719 5720 5720 5721 5721 5721 5722 5722 5722 5722 5722 5721 5721 5721 5720 5719 5718 5717 5716 5715
5714 5712 5711 5709 5708 5707 5706 5706 5706 5704 5704 5705 5704 5704 5706 5705 5706 5706 5708 5708 5709 5710 5711 5712 5713 5713 5714 5714 5714 5714 5714 5714 5714 5714 5713 5713 5712 5712 5711 5710 5710 5709 5708 5706
5713 5712 5710 5708 5706 5705 5704 5703 5703 5702 5701 5701 5700 5700 5701 5701 5700 5701 5702 5703 5704 5705 5705 5706 5707 5707 5707 5707 5707 5707 5707 5707 5706 5706 5705 5704 5704 5703 5702 5701 5701 5700 5699 5698
5711 5710 5708 5706 5704 5702 5701 5700 5699 5698 5697 5696 5696 5696 5696 5696 5696 5696 5696 5697 5698 5698 5699 5699 5700 5699 5699 5699 5699 5699 5699 5699 5698 5698 5697 5696 5695 5694 5693 5692 5692 5691 5690 5689
5709 5708 5706 5704 5702 5700 5699 5697 5696 5695 5693 5692 5692 5692 5692 5691 5691 5691 5691 5691 5692 5692 5692 5692 5692 5692 5692 5691 5691 5691 5691 5690 5690 5689 5688 5687 5686 5685 5685 5684 5683 5682 5682 5681
5707 5706 5704 5702 5699 5697 5696 5695 5692 5691 5690 5689 5688 5690 5688 5686 5686 5686 5686 5685 5686 5686 5685 5685 5685 5684 5684 5683 5683 5683 5682 5682 5681 5680 5679 5678 5677 5676 5676 5675 5674 5674 5673 5672
5704 5702 5700 5699 5696 5694 5692 5690 5689 5688 5687 5684 5683 5687 5683 5681 5680 5680 5680 5679 5679 5679 5678 5678 5678 5677 5676 5676 5675 5674 5674 5673 5672 5672 5671 5669 5668 5668 5667 5666 5666 5665 5665 5664
5700 5699 5697 5695 5695 5692 5689 5687 5685 5683 5682 5680 5678 5681 5677 5676 5674 5673 5673 5673 5672 5672 5671 5671 5670 5669 5669 5668 5667 5666 5665 5665 5664 5663 5662 5661 5660 5659 5658 5657 5657 5656 5656 5655
5696 5694 5693 5691 5688 5686 5684 5682 5680 5678 5676 5675 5674 5673 5672 5669 5668 5668 5667 5666 5665 5665 5664 5663 5662 5661 5661 5660 5659 5658 5657 5656 5655 5654 5654 5652 5651 5650 5649 5649 5648 5648 5647 5646
5691 5689 5687 5685 5682 5680 5679 5677 5675 5672 5670 5669 5668 5666 5665 5662 5662 5661 5660 5659 5658 5658 5656 5656 5655 5654 5653 5652 5651 5650 5649 5648 5647 5646 5645 5644 5642 5642 5641 5640 5639 5638 5638 5637
5684 5683 5681 5679 5676 5673 5672 5671 5668 5666 5664 5662 5660 5660 5658 5656 5655 5654 5653 5652 5651 5650 5649 5648 5647 5645 5644 5643 5642 5641 5640 5639 5638 5637 5636 5635 5634 5633 5632 5631 5630 5629 5628 5627
5677 5675 5673 5671 5669 5666 5665 5665 5661 5659 5657 5655 5653 5653 5650 5649 5648 5647 5646 5644 5643 5642 5641 5640 5638 5637 5635 5634 5633 5631 5631 5630 5629 5627 5626 5625 5625 5624 5623 5622 5621 5620 5619 5618
5669 5666 5663 5661 5661 5658 5661 5656 5654 5651 5649 5647 5645 5644 5643 5641 5640 5638 5637 5635 5634 5633 5632 5630 5629 5628 5626 5625 5623 5622 5621 5620 5619 5618 5617 5616 5615 5615 5613 5612 5611 5610 5609 5608
5660 5657 5654 5652 5650 5649 5651 5648 5644 5642 5641 5639 5637 5636 5634 5632 5631 5630 5628 5626 5624 5623 5622 5621 5619 5618 5617 5615 5614 5613 5612 5611 5610 5609 5608 5607 5606 5605 5604 5602 5601 5600 5599 5599
5651 5648 5646 5642 5639 5638 5642 5638 5634 5633 5632 5631 5628 5626 5625 5623 5622 5622 5618 5616 5615 5613 5611 5610 5609 5608 5606 5605 5604 5603 5603 5601 5600 5599 5598 5597 5596 5595 5594 5593 5592 5590 5590 5589
5640 5638 5636 5632 5628 5628 5630 5627 5625 5624 5623 5620 5618 5616 5615 5613 5612 5611 5609 5607 5605 5603 5601 5600 5599 5597 5596 5595 5594 5593 5592 5591 5590 5589 5588 5587 5586 5585 5584 5583 5582 5581 5580 5580
5628 5626 5625 5621 5619 5620 5618 5615 5614 5612 5610 5608 5607 5605 5604 5602 5601 5599 5598 5596 5594 5593 5591 5589 5588 5587 5585 5584 5583 5582 5581 5580 5579 5578 5578 5577 5575 5574 5573 5573 5572 5571 5570 5570
5616 5615 5611 5610 5611 5608 5605 5603 5601 5600 5598 5597 5595 5594 5592 5591 5589 5588 5587 5585 5583 5581 5580 5578 5576 5575 5574 5572 5571 5570 5570 5568 5568 5567 5566 5565 5564 5563 5562 5562 5561 5560 5560 5560
5603 5601 5598 5596 5597 5596 5593 5590 5589 5588 5586 5585 5583 5582 5580 5579 5577 5576 5575 5573 5571 5569 5568 5566 5565 5563 5562 5560 5559 5558 5557 5556 5556 5555 5554 5553 5552 5552 5551 5550 5550 5549 5549 5549
5590 5587 5583 5582 5583 5581 5580 5578 5576 5574 5573 5572 5571 5569 5567 5566 5564 5563 5561 5560 5558 5557 5555 5553 5552 5550 5549 5548 5547 5546 5545 5544 5544 5543 5542 5541 5541 5540 5539 5539 5539 5538 5538 5538
5577 5573 5569 5569 5569 5565 5565 5564 5562 5561 5560 5559 5557 5556 5554 5552 5551 5549 5548 5546 5545 5543 5542 5540 5539 5538 5537 5535 5535 5533 5532 5532 5531 5531 5530 5529 5528 5528 5528 5528 5527 5527 5527 5527